Regional Weather Roundup
Issued by NWS Wakefield, VA

Home | Current Version | Previous Version | Graphics & Text | Print | Product List | Glossary On
Versions: 1 2 3 4 5 6 7 8 9 10 11 12 13 14 15 16 17 18 19 20 21 22 23 24 25 26 27 28 29 30 31 32 33 34 35 36 37 38 39 40 41 42 43 44 45 46 47 48 49 50
000
ASUS41 KAKQ 042215
RWRAKQ

REGIONAL WEATHER ROUNDUP
NATIONAL WEATHER SERVICE WAKEFIELD VA
600 PM EDT SAT JUL 04 2015

Note: "fair" indicates few or no clouds below 12,000 feet with no
significant weather and/or obstructions to visibility. * = Denotes
station may not report precipitation (e.g., rain,snow,etc.),
thunder or fog.

VAZ042-051-052>054-056-042300-
NORTHERN VIRGINIA

CITY           SKY/WX    TMP DP  RH WIND       PRES   REMARKS
WASH NATIONAL  CLOUDY    76  70  82 SE3       29.92S
DULLES         CLOUDY    75  70  84 N3        29.93R
FORT BELVOIR   CLOUDY    74  71  92 CALM      29.92S
QUANTICO       LGT RAIN  75  69  81 W5        29.92R
FREDERICKSBRG* CLOUDY    81  74  78 W7        29.90R
STAFFORD*      LGT RAIN  73  68  84 N8G20     29.96R
WARRENTON      CLOUDY    76  72  88 CALM      29.92S
CULPEPER*      CLOUDY    75  69  83 CALM      29.93S
MANASSAS*      MOSUNNY   73  70  88 CALM        N/A
LEESBURG*      CLOUDY    75  75 100 NE9       29.94S
WINCHESTER     PTSUNNY   79  68  69 E5        29.95R
FRONT ROYAL*   MOCLDY    77  72  83 NE9       29.93R
LURAY*         FAIR      81  70  69 CALM      29.95R
$$

VAZ048-049-060>072-079>083-042300-
CENTRAL AND SOUTH CENTRAL VIRGINIA

CITY           SKY/WX    TMP DP  RH WIND       PRES   REMARKS
RICHMOND       PTSUNNY   83  71  67 SW6       29.90S
CHESTERFIELD*  NOT AVBL
PETERSBURG*    MOSUNNY   83  76  80 SW6       29.91F
HANOVER        TSTM      72  69  90 SW10      29.93R VSB 3/4
TAPPAHANNOCK*  MOSUNNY   83  67  58 CALM      29.91S
QUINTON*       NOT AVBL
CHARLOTTSVILLE PTSUNNY   76  67  73 E3        29.93R
GORDONSVILLE*  FAIR      73  70  88 CALM      29.92S
ORANGE*        CLOUDY    77  72  83 CALM      29.94R
LOUISA*        CLOUDY    75  72  88 N5        29.91F
BUMPASS*       MOCLDY    76  71  83 N5        29.91F
FARMVILLE*     PTSUNNY   82  70  67 SW7       29.93R
CREWE*         FAIR      82  71  69 SW3       29.92S
FORT PICKETT*  FAIR      81  72  74 SW8       29.93R
CHASE CITY*    FAIR      78  78  99 CALM      29.95R
CLARKSVILLE*   MOCLDY    73  72  94 S3        29.95R
SOUTH HILL*    SUNNY     82  71  68 SW8       29.99S
LAWRENCEVILLE* NOT AVBL
EMPORIA*         N/A     82  72  69 S8G17     29.94S
$$

VAZ088>098-042300-
SOUTHEAST VIRGINIA

CITY           SKY/WX    TMP DP  RH WIND       PRES   REMARKS
NORFOLK        PTSUNNY   86  67  52 SW12      29.91R
VIRGINIA BEACH PTSUNNY   88  72  58 S12       29.91R
NORFOLK NAVAL  PTSUNNY   86  69  56 W8        29.92S
WEST POINT*    PTSUNNY   86  70  58 SW5       29.91S
SALUDA*        MOCLDY    82  72  70 CALM      29.90S
NEWPORT NEWS   MOSUNNY   86  72  62 SW8       29.91S
LANGLEY AFB    PTSUNNY   85  72  64 W9        29.89S
FORT EUSTIS    MOSUNNY   85  76  74 W6        29.89S
WILLIAMSBURG*  MOSUNNY   90  73  58 SW3       29.91F HX  98
HR EXEC AP*    FAIR      86  72  62 W9        29.93R
FRANKLIN*      CLOUDY    83  72  69 SW5       29.92S
WAKEFIELD      MOSUNNY   86  70  58 SW9       29.91S
$$

VAZ020-022-025-037-045-042300-
WEST CENTRAL AND SOUTHWEST VIRGINIA

CITY           SKY/WX    TMP DP  RH WIND       PRES   REMARKS
STAUNTON*      CLOUDY    83  65  55 N6        29.98R
WAYNESBORO*    FAIR      78  67  70 W6        29.98R
HOT SPRINGS VA PTSUNNY   70  63  79 W8        30.09R
LYNCHBURG      FAIR      82  67  60 W5        29.96R
DANVILLE       MOSUNNY   82  73  74 CALM      29.94S
SOUTH BOSTON*  FAIR      77  71  81 MISG      29.95S
MARTINSVILLE   MOSUNNY   85  70  61 SW5       29.99R
ROANOKE        PTSUNNY   80  65  59 NW5       29.99S
BLACKSBURG     MOSUNNY   77  66  69 W8        30.06S
DUBLIN*        CLOUDY    76  67  74 CALM      30.05S
MARION*        LGT RAIN  69  66  90 SW3       30.10S
HILLSVILLE*    CLOUDY    75  65  70 W8        30.06R
RICHLANDS*     MOCLDY    70  68  94 CALM      30.08S
WISE*          PTSUNNY   72  63  73 NE7       30.09S
ABINGDON*      PTSUNNY   74  67  78 NW3       30.06S
$$

MDZ021>025-VAZ099-100-042300-
SOUTHERN MARYLAND AND THE DELMARVA PENINSULA

CITY           SKY/WX    TMP DP  RH WIND       PRES   REMARKS
PATUXENT RIVER PTSUNNY   78  71  79 SE8       29.90S
BAY BRIDGE APT LGT RAIN  75  68  78 CALM      29.92S
LEONARDTOWN    MOSUNNY   79  68  69 E6        29.92S
DOVER          PTSUNNY   77  69  76 SE9       29.90F
GEORGETOWN     MOSUNNY   77  66  68 E6        29.93R
EASTON         PTSUNNY   81  70  69 CALM      29.95R
CAMBRIDGE      MOSUNNY   81  68  65 CALM      29.91R
SALISBURY      CLOUDY    73  68  84 SE8       29.93R
OCEAN CITY     CLOUDY    74  68  81 E9        29.94R
WALLOPS ISLAND CLOUDY    75  72  90 E9        29.93S
ACCOMACK*      PTSUNNY   81  73  78 CALM      29.92R
$$

NCZ012>017-030>032-042300-
NORTH CENTRAL AND EASTERN NORTH CAROLINA

CITY           SKY/WX    TMP DP  RH WIND       PRES   REMARKS
ROANOKE RAPIDS FAIR      82  72  69 SW12      29.94S
RALEIGH        PTSUNNY   84  69  60 SW15      29.97R
ELIZABETH CITY PTSUNNY   77  73  87 SW9       29.94S
AHOSKIE*       SUNNY    N/A N/A N/A CALM      29.94S
EDENTON*       PTSUNNY   79  71  76 SW9       29.95S
CURRITUCK*     LGT RAIN  79  70  72 SW6       29.94S
KILL DEVIL HLS LGT RAIN  77  70  79 W7G16     29.94F
MANTEO         LGT RAIN  73  69  89 W8G20     29.96F
CAPE HATTERAS  SUNNY     81  73  76 SW15G25   29.99S
TARBORO*         N/A     85  72  66 SW9       29.96S
GOLDSBORO      SUNNY     87  67  50 SW10G18   29.95R
WASHINGTON     SUNNY     80  74  81 NW3       29.96S
GREENVILLE     SUNNY     81  77  89 W3        29.98S
NEW BERN       SUNNY     89  67  47 SW12G23   29.99S
WILMINGTON     SUNNY     88  72  58 SW12G21   30.01S
$$

VAZ048-042300-
ELSEWHERE

CITY           SKY/WX    TMP DP  RH WIND       PRES   REMARKS
HARRISBURG PA  LGT RAIN  69  64  84 CALM      29.95S FOG
BALTIMORE      CLOUDY    73  68  84 E5        29.93R
ANNAPOLIS      LGT RAIN  74  69  85 CALM      29.92R
ANDREWS AFB    CLOUDY    72  72 100 SE5       29.93R
PHILADELPHIA   CLOUDY    75  61  61 E5        29.94S
HENDERSON NC   PTSUNNY   75  63  65 NW9G26    29.97R
GREENSBORO     PTSUNNY   86  66  51 W13       29.97S
ROCKY MOUNT    SUNNY     85  71  63 W9        29.96R
$$

VAZ100-042300-
MARINE

STATION/POSITION TIME  TEMP    WIND        PRES    WAVE   SWELL
                       AIR SEA DIR/SP/G            HT/PER HT/PER
                 (UTC) (F)     (DEG/KT/KT) (MB)    (FT/S) (FT/S)
BRANDYWINE LGT   2100   75 75  120/  8/ 10 1013.5R
CAPE MAY NJ      2100   75 77  100/  9/ 12 1013.1R
LEWES DE         2100   73 73  100/ 11/ 13 1013.1R
15NM E FENWICK I 2150   73 74              1013.4R   4/ 8
OCEAN-CITY-INLET 2100   73 75   70/  7/  9 1013.1R
WACHAPREAGUE VA  2100   81 84   CALM  /  2 1012.7F
GOOSES REEF MD   2100   78 79   90/  6/  8 1013.5F
COVE POINT MD    2100   78      60/  2/  4 1013.1F
SOLOMONS ISLAND  2100      81                N/A
BISHOPS HEAD MD  2100   79     190/  6/  8 1012.5R
PINEY POINT MD   2100          150/  6/  6   N/A
CAMBRIDGE MD     2100   79 80   50/  5/  6 1012.4F
LEWISETTA VA     2100   77 80  130/ 10/ 11 1012.3S
RAPPAHANNOCK LGT 2100           60/  3/  5 1012.9F
STINGRAY PT      2100   83 80  240/  8/ 10 1012.4F   1
YORK RVR RNG VA  2100   83     250/  5/  6 1012.0F
YORKTOWN VA      2100   83 80  240/  7/ 11 1012.2F
JAMESTOWN VA     2100   83 83  240/  8/ 12   N/A
DOMINION TERM VA 2100   84     260/ 11/ 13 1012.4R
KIPTOPEKE VA     2100      82  290/  4/  5   N/A
CHES BAY BRIDGE  2100   82 78  280/ 10/ 11 1012.1F
CAPE HENRY VA    2100   81     330/  4/  5   N/A
CHESAPEAKE LGHT  2100   80      CALM  /  2 1013.7F
WILLOUBY STN VA  2100   83     280/ 11/ 12 1013.4S
1ST LANDING BUOY 2100      79              1012.4F   1/ 4
OFFSHORE WE BUOY 2111      79                N/A     3/ 7   3/ 7
64NM E OF VA BCH 2150   78 77  200/ 14/ 16 1013.2F   5/ 8   5/ 8
DUCK PIER NC     2100   79 72  240/ 15/ 19   N/A
44056 DUCK FRF   2111      77                N/A     2/14
OREGON INLET NC  2100   79 82  250/ 17/ 21 1014.9R
HATTERAS NC      2100   82 78  220/ 12/ 22 1015.2R
DIAMOND SHLS NC  2150   82 81  220/ 21/ 23 1015.5R   6/ 6   2/13
CAPE LOOKOUT NC  2100   83     220/ 13/ 16 1015.9F
$$


USA.gov is the U.S. government's official web portal to all federal, state and local government web resources and services.